NOAA 16 DEB, 41406

Orbit data source: Space-Track

NOAA 16 DEB, 41406 is space debris in SSO originally from a launch on Thu, 21 Sep 2000 UTC launched from the Air Force Western Test Range (AFWTR). Debris objects in space refer to the collection of defunct objects orbiting the Earth. Examples of debris include non-operational satellites, rocket bodies, and fragments generated from explosions, collisions, or faulty payload assembly.

Loading next visibility...
Identifier
41406, 2000-055KK
Orbit
SSO
Country
Flag of USUS
Related business
Manufacturer
Unknown
Mission
Spacecraft
Bus & Motor
Unknown
Mass
Unknown
Launch date (UTC)
2000-09-21 (25 years ago)
Launch vehicle
Unknown
Launch site
Air Force Western Test Range (AFWTR)
Object type
Payload
Rocket body
Debris
Shape & HBR
Unknown shape, 0.1 m
Radar Cross Section
Small (<0.1 m²)

Expand to show TLE details & history
Last TLE update: 2 days ago

TLE from 2 days ago
0 NOAA 16 DEB
1 41406U 00055KK  25286.98154168  .00011362  00000-0  27910-2 0  9994
2 41406  98.9678 119.4328 0031668  70.2014 290.2589 14.52193172503019
Epoch: 2025-10-13T23:33Z
TLE epoch observation values (Epoch: 2025-10-13T23:33:25.201Z)
Latitude
-0.00002°
Longitude
103.30128°
Altitude
713.724 km
Speed
7.503 km/s
True Right ascension
07h 57m 43s
True Declination
0° 00' 00"
Sunlit
Object was in daylight at epoch
Visualization orbit readout
Latitude
Unknown
Longitude
Unknown
Altitude
Unknown
Speed
Unknown
Apparent Right ascension
Unknown
Apparent Declination
Unknown
Sunlit
N/A
Visualization observer readout
Local Sidereal Time
06:20:30
Azimuth
Unknown
Elevation
Unknown
Doppler factor
Unknown
Orbital elements
Apogee altitude
738.087 km
Perigee altitude
693.158 km
Semi-major axis
7,093.76 km
Eccentricity
0.00317
Inclination
98.9678°
RAAN
119.4328°
Arg. of periapsis
70.2014°
True anomaly
289.918°
Mean anomaly
290.2589°
Eccentric anomaly
290.08849°
Mean motion
3.63269 °/min
Orbital period
99.1 mins
BSTAR
0.002791
Loading maneuver chart data...
Computing Atmospheric mass density...

Documentation

Showing up to 5 results
|